Date,TemperatureHighF,TemperatureAvgF,TemperatureLowF,DewpointHighF,DewpointAvgF,DewpointLowF,HumidityHigh,HumidityAvg,HumidityLow,PressureMaxIn,PressureMinIn,WindSpeedMaxMPH,WindSpeedAvgMPH,GustSpeedMaxMPH,PrecipitationSumIn
2013-2-1,29.8,14.9,-3.3,12.6,0.6,-14.7,57,53,43,28.91,17.72,20,7,34,0.00
2013-2-2,37.9,30.6,25.0,28.8,17.5,11.8,77,58,44,29.03,28.88,22,4,30,0.00
2013-2-3,42.1,32.8,18.5,23.2,16.7,5.0,64,52,40,29.03,28.61,31,8,40,0.00
2013-2-4,36.0,27.7,22.5,25.0,17.3,10.8,82,65,50,28.85,28.61,42,8,46,0.00
2013-2-5,49.3,36.2,25.5,31.2,22.4,17.4,87,61,34,28.91,28.67,39,6,39,0.00
2013-2-6,54.1,42.1,30.2,30.2,26.4,21.4,76,55,38,28.91,28.67,15,2,35,0.00
2013-2-7,41.2,34.0,29.1,31.2,24.7,17.0,81,69,59,29.06,28.73,34,14,41,0.00
2013-2-8,35.1,29.5,26.1,24.6,20.4,17.2,86,69,51,29.18,28.97,15,2,22,0.00
2013-2-9,48.6,38.1,28.0,29.8,27.9,24.7,88,68,47,28.97,28.53,25,6,30,0.00
2013-2-10,46.8,38.3,30.2,42.5,28.7,15.6,87,69,51,28.61,28.11,41,14,56,0.00
2013-2-11,35.8,29.8,20.1,20.0,15.2,12.6,73,55,44,28.97,28.64,38,7,55,0.00
2013-2-12,47.7,31.4,17.8,27.4,16.2,12.3,86,57,31,28.97,28.73,13,0,28,0.00
2013-2-13,52.7,37.1,22.1,27.5,20.2,12.4,79,53,31,28.73,28.56,12,0,24,0.00
2013-2-14,44.8,36.7,21.4,29.0,21.5,8.1,85,56,34,29.12,28.61,28,3,45,0.00
2013-2-15,34.7,23.7,13.8,20.8,11.1,4.8,84,60,37,29.18,29.12,13,0,30,0.00
2013-2-16,36.5,24.7,8.4,19.6,12.8,0.4,78,61,47,29.15,28.85,0,0,8,0.00
2013-2-17,54.5,38.6,24.4,28.8,22.0,15.9,74,53,36,28.82,28.41,0,0,17,0.00
2013-2-18,41.7,31.7,21.2,29.7,18.6,7.3,89,59,43,28.88,28.41,31,4,46,0.00
2013-2-19,24.8,15.7,8.6,7.4,-2.4,-8.2,53,45,33,29.21,28.88,32,7,45,0.00
2013-2-20,25.5,16.5,4.3,2.9,-3.8,-12.8,44,40,35,29.21,29.03,13,0,21,0.00
2013-2-21,25.9,22.8,21.2,19.8,10.7,1.1,86,62,39,29.06,28.67,12,0,30,0.00
2013-2-22,25.0,19.4,10.0,17.3,9.7,0.3,82,66,50,28.85,28.67,0,0,18,0.00
2013-2-23,35.8,21.7,5.9,20.8,10.3,-3.6,79,62,48,28.85,28.67,8,0,8,0.00
2013-2-24,45.9,32.1,19.9,24.5,19.7,14.5,81,62,38,28.91,28.73,0,0,8,0.00
2013-2-25,37.8,30.1,26.1,24.5,21.9,18.9,87,72,50,28.91,28.76,8,0,21,0.00
2013-2-26,32.7,28.9,25.9,26.5,23.5,20.8,90,80,71,28.76,28.61,30,6,39,0.00
2013-2-27,37.2,30.0,23.5,22.3,17.8,12.4,79,61,43,28.94,28.73,27,5,45,0.00
2013-2-28,33.4,27.9,25.2,19.7,17.2,14.3,71,64,50,29.06,28.94,31,6,40,0.00